BTK6761 WAAA-WADD

Flight info

Callsign BTK6761
Flight time 1h 11m
Altitude 36000
Route LIPOT W41 PEDET
Aircraft A320/M-SDE3FGHIRWY/LB1

Departure

Time 2026-05-04 11:59
Airport Sultan Hasanuddin International Airport (WAAA)

Arrival

Time 2026-05-04 13:10
Airport Denpasar I Gusti Ngurah Rai International Airport (WADD)
Time Latitude Longitude Altitude Speed Heading
2026-05-04 11:34 -5.07712 119.54772 14 ft 0 kts 300°
2026-05-04 11:42 -5.07714 119.54775 41 ft 3 kts 300°
2026-05-04 11:42 -5.07726 119.54798 41 ft 4 kts 290°
2026-05-04 11:42 -5.07732 119.54824 41 ft 4 kts 261°
2026-05-04 11:43 -5.07724 119.54841 41 ft 0 kts 210°
2026-05-04 11:46 -5.07739 119.54832 38 ft 6 kts 210°
2026-05-04 11:46 -5.07798 119.54798 41 ft 14 kts 210°
2026-05-04 11:47 -5.07903 119.54735 41 ft 20 kts 212°
2026-05-04 11:47 -5.07912 119.54730 41 ft 0 kts 212°
2026-05-04 11:49 -5.07913 119.54729 41 ft 2 kts 212°
2026-05-04 11:50 -5.07945 119.54711 41 ft 8 kts 209°
2026-05-04 11:50 -5.07987 119.54687 41 ft 6 kts 210°
2026-05-04 11:50 -5.08022 119.54667 41 ft 5 kts 210°
2026-05-04 11:50 -5.08050 119.54650 41 ft 4 kts 210°
2026-05-04 11:51 -5.08077 119.54635 41 ft 8 kts 209°
2026-05-04 11:51 -5.08181 119.54573 41 ft 26 kts 211°
2026-05-04 11:51 -5.08324 119.54491 41 ft 24 kts 210°
2026-05-04 11:51 -5.08461 119.54409 41 ft 20 kts 210°
2026-05-04 11:52 -5.08530 119.54455 41 ft 12 kts 121°
2026-05-04 11:52 -5.08567 119.54520 41 ft 10 kts 119°
2026-05-04 11:52 -5.08616 119.54554 41 ft 9 kts 173°
2026-05-04 11:52 -5.08673 119.54534 41 ft 9 kts 211°
2026-05-04 11:53 -5.08741 119.54486 41 ft 17 kts 216°
2026-05-04 11:53 -5.08869 119.54408 41 ft 26 kts 211°
2026-05-04 11:53 -5.09015 119.54323 41 ft 28 kts 210°
2026-05-04 11:53 -5.09144 119.54278 41 ft 16 kts 160°
2026-05-04 11:55 -5.09150 119.54450 42 ft 0 kts 29°
2026-05-04 11:58 -5.09053 119.54506 44 ft 50 kts 30°
2026-05-04 11:58 -5.08548 119.54797 41 ft 115 kts 30°
2026-05-04 11:58 -5.07699 119.55287 42 ft 164 kts 29°
2026-05-04 11:59 -5.06671 119.55874 557 ft 170 kts 30°
2026-05-04 11:59 -5.05647 119.56480 1251 ft 172 kts 29°
2026-05-04 11:59 -5.04580 119.57058 1659 ft 182 kts 28°
2026-05-04 11:59 -5.03363 119.57627 1860 ft 205 kts 15°
2026-05-04 12:00 -5.01885 119.57580 2019 ft 229 kts 338°
2026-05-04 12:00 -5.00654 119.56511 2280 ft 254 kts 299°
2026-05-04 12:00 -5.00119 119.54767 2718 ft 270 kts 279°
2026-05-04 12:00 -4.99920 119.52876 3401 ft 275 kts 273°
2026-05-04 12:01 -4.99833 119.50944 4134 ft 279 kts 271°
2026-05-04 12:01 -4.99765 119.48990 4874 ft 282 kts 271°
2026-05-04 12:02 -4.98925 119.36884 9070 ft 299 kts 274°
2026-05-04 12:03 -4.98754 119.34798 9744 ft 302 kts 274°
2026-05-04 12:03 -4.98580 119.32678 10225 ft 312 kts 274°
2026-05-04 12:03 -4.98397 119.30431 10353 ft 334 kts 274°
2026-05-04 12:03 -4.98202 119.28037 10466 ft 354 kts 274°
2026-05-04 12:04 -4.97996 119.25534 10824 ft 364 kts 274°
2026-05-04 12:04 -4.97788 119.22987 11335 ft 369 kts 274°
2026-05-04 12:04 -4.97577 119.20413 11870 ft 372 kts 274°
2026-05-04 12:04 -4.97363 119.17819 12404 ft 375 kts 274°
2026-05-04 12:05 -4.97146 119.15206 12940 ft 378 kts 274°
2026-05-04 12:05 -4.96928 119.12566 13472 ft 381 kts 274°
2026-05-04 12:05 -4.96711 119.09903 13959 ft 385 kts 274°
2026-05-04 12:05 -4.96490 119.07219 14420 ft 387 kts 274°
2026-05-04 12:06 -4.96270 119.04521 14864 ft 390 kts 274°
2026-05-04 12:06 -4.96048 119.01796 15326 ft 393 kts 274°
2026-05-04 12:06 -4.95825 118.99059 15766 ft 396 kts 274°
2026-05-04 12:06 -4.95600 118.96336 16209 ft 398 kts 275°
2026-05-04 12:07 -4.95369 118.93565 16646 ft 400 kts 275°
2026-05-04 12:07 -4.95135 118.90774 17068 ft 403 kts 275°
2026-05-04 12:07 -4.94903 118.87965 17489 ft 406 kts 275°
2026-05-04 12:07 -4.94672 118.85139 17905 ft 408 kts 275°
2026-05-04 12:08 -4.94437 118.82291 18293 ft 410 kts 275°
2026-05-04 12:08 -4.94220 118.79434 18626 ft 413 kts 271°
2026-05-04 12:08 -4.94405 118.76557 18947 ft 415 kts 260°
2026-05-04 12:08 -4.95151 118.73758 19262 ft 417 kts 248°
2026-05-04 12:09 -4.96432 118.71150 19573 ft 418 kts 237°
2026-05-04 12:09 -4.98161 118.68808 19893 ft 419 kts 230°
2026-05-04 12:09 -4.99994 118.66517 20221 ft 422 kts 230°
2026-05-04 12:09 -5.01833 118.64216 20541 ft 424 kts 230°
2026-05-04 12:10 -5.03679 118.61903 20846 ft 426 kts 230°
2026-05-04 12:10 -5.05531 118.59576 21145 ft 428 kts 230°
2026-05-04 12:10 -5.07394 118.57232 21456 ft 431 kts 230°
2026-05-04 12:10 -5.09267 118.54876 21761 ft 433 kts 230°
2026-05-04 12:11 -5.11145 118.52506 22063 ft 435 kts 230°
2026-05-04 12:11 -5.13028 118.50127 22361 ft 437 kts 230°
2026-05-04 12:11 -5.14921 118.47736 22655 ft 439 kts 230°
2026-05-04 12:11 -5.16827 118.45330 22925 ft 441 kts 230°
2026-05-04 12:12 -5.18094 118.43731 23117 ft 442 kts 230°
2026-05-04 12:12 -5.20012 118.41312 23390 ft 445 kts 230°
2026-05-04 12:12 -5.21942 118.38877 23624 ft 447 kts 230°
2026-05-04 12:12 -5.23942 118.36488 23857 ft 447 kts 224°
2026-05-04 12:13 -5.27072 118.33820 24164 ft 447 kts 215°
2026-05-04 12:14 -5.43925 118.21292 25663 ft 456 kts 215°
2026-05-04 12:15 -5.46478 118.19397 25883 ft 457 kts 215°
2026-05-04 12:15 -5.49041 118.17492 26089 ft 459 kts 215°
2026-05-04 12:15 -5.51573 118.15605 26312 ft 460 kts 215°
2026-05-04 12:15 -5.54145 118.13684 26536 ft 461 kts 215°
2026-05-04 12:16 -5.56821 118.11917 26736 ft 461 kts 207°
2026-05-04 12:16 -5.59722 118.10547 26947 ft 461 kts 202°
2026-05-04 12:16 -5.62673 118.09263 27150 ft 463 kts 202°
2026-05-04 12:16 -5.65631 118.07979 27341 ft 464 kts 202°
2026-05-04 12:17 -5.68596 118.06691 27543 ft 465 kts 202°
2026-05-04 12:17 -5.71570 118.05392 27730 ft 467 kts 202°
2026-05-04 12:17 -5.74552 118.04084 27915 ft 468 kts 202°
2026-05-04 12:17 -5.77535 118.02769 28092 ft 469 kts 202°
2026-05-04 12:18 -5.80529 118.01451 28268 ft 470 kts 202°
2026-05-04 12:18 -5.83536 118.00129 28432 ft 472 kts 202°
2026-05-04 12:18 -5.86545 117.98806 28599 ft 473 kts 202°
2026-05-04 12:18 -5.89560 117.97482 28768 ft 474 kts 202°
2026-05-04 12:19 -5.92588 117.96156 28946 ft 475 kts 202°
2026-05-04 12:19 -5.95620 117.94830 29111 ft 476 kts 202°
2026-05-04 12:19 -5.98661 117.93502 29271 ft 477 kts 202°
2026-05-04 12:19 -6.01713 117.92171 29441 ft 478 kts 202°
2026-05-04 12:20 -6.04768 117.90835 29593 ft 480 kts 202°
2026-05-04 12:20 -6.07829 117.89492 29768 ft 480 kts 202°
2026-05-04 12:20 -6.10887 117.88150 29999 ft 480 kts 202°
2026-05-04 12:20 -6.13945 117.86807 30212 ft 479 kts 202°
2026-05-04 12:21 -6.16990 117.85466 30441 ft 478 kts 202°
2026-05-04 12:21 -6.20031 117.84127 30669 ft 476 kts 202°
2026-05-04 12:21 -6.23063 117.82791 30895 ft 475 kts 202°
2026-05-04 12:21 -6.26090 117.81460 31120 ft 474 kts 202°
2026-05-04 12:22 -6.29111 117.80136 31362 ft 473 kts 202°
2026-05-04 12:22 -6.32127 117.78816 31604 ft 472 kts 202°
2026-05-04 12:22 -6.35133 117.77500 31843 ft 471 kts 202°
2026-05-04 12:22 -6.38135 117.76184 32096 ft 470 kts 203°
2026-05-04 12:23 -6.41126 117.74868 32336 ft 469 kts 203°
2026-05-04 12:23 -6.44070 117.73570 32577 ft 468 kts 202°
2026-05-04 12:23 -6.47051 117.72258 32820 ft 467 kts 203°
2026-05-04 12:23 -6.50026 117.70951 33060 ft 466 kts 203°
2026-05-04 12:24 -6.52991 117.69647 33301 ft 465 kts 203°
2026-05-04 12:24 -6.55956 117.68342 33541 ft 464 kts 203°
2026-05-04 12:24 -6.58910 117.67043 33787 ft 463 kts 203°
2026-05-04 12:24 -6.61861 117.65749 34022 ft 462 kts 203°
2026-05-04 12:25 -6.64797 117.64439 34235 ft 461 kts 206°
2026-05-04 12:25 -6.67541 117.62783 34439 ft 460 kts 216°
2026-05-04 12:25 -6.69973 117.60693 34656 ft 460 kts 225°
2026-05-04 12:25 -6.72078 117.58279 34865 ft 459 kts 229°
2026-05-04 12:26 -6.74133 117.55828 35085 ft 457 kts 229°
2026-05-04 12:26 -6.76186 117.53391 35306 ft 456 kts 229°
2026-05-04 12:26 -6.78237 117.50962 35513 ft 455 kts 229°
2026-05-04 12:26 -6.80278 117.48543 35727 ft 453 kts 229°
2026-05-04 12:27 -6.82317 117.46128 35878 ft 452 kts 229°
2026-05-04 12:27 -6.84350 117.43714 35922 ft 452 kts 229°
2026-05-04 12:27 -6.88415 117.38882 35924 ft 452 kts 229°
2026-05-04 12:28 -6.92473 117.34055 35927 ft 452 kts 229°
2026-05-04 12:28 -6.96534 117.29222 35925 ft 452 kts 229°
2026-05-04 12:29 -7.00570 117.24427 35925 ft 452 kts 229°
2026-05-04 12:29 -7.04626 117.19599 35925 ft 452 kts 229°
2026-05-04 12:30 -7.08684 117.14774 35926 ft 452 kts 229°
2026-05-04 12:30 -7.12744 117.09940 35926 ft 452 kts 229°
2026-05-04 12:31 -7.16799 117.05109 35925 ft 452 kts 229°
2026-05-04 12:31 -7.20855 117.00285 35927 ft 451 kts 229°
2026-05-04 12:32 -7.26917 116.93073 35926 ft 442 kts 229°
2026-05-04 12:33 -7.30856 116.88365 35927 ft 438 kts 229°
2026-05-04 12:33 -7.34785 116.83687 35928 ft 438 kts 229°
2026-05-04 12:34 -7.38716 116.79003 35837 ft 437 kts 229°
2026-05-04 12:34 -7.40681 116.76659 35615 ft 436 kts 229°
2026-05-04 12:34 -7.42632 116.74330 35377 ft 434 kts 229°
2026-05-04 12:34 -7.44576 116.72012 35142 ft 433 kts 229°
2026-05-04 12:35 -7.46517 116.69697 34917 ft 432 kts 229°
2026-05-04 12:35 -7.48427 116.67419 34699 ft 430 kts 229°
2026-05-04 12:35 -7.50355 116.65116 34460 ft 429 kts 229°
2026-05-04 12:35 -7.52281 116.62825 34233 ft 428 kts 229°
2026-05-04 12:36 -7.54229 116.60568 33924 ft 428 kts 228°
2026-05-04 12:36 -7.56200 116.58334 33502 ft 424 kts 227°
2026-05-04 12:36 -7.58166 116.56130 33129 ft 422 kts 227°
2026-05-04 12:36 -7.60129 116.53937 32755 ft 420 kts 227°
2026-05-04 12:37 -7.62079 116.51751 32396 ft 419 kts 227°
2026-05-04 12:37 -7.64017 116.49566 32025 ft 417 kts 228°
2026-05-04 12:37 -7.65941 116.47388 31666 ft 415 kts 228°
2026-05-04 12:37 -7.67856 116.45217 31312 ft 414 kts 228°
2026-05-04 12:38 -7.69764 116.43053 30963 ft 412 kts 228°
2026-05-04 12:38 -7.71661 116.40898 30620 ft 410 kts 228°
2026-05-04 12:38 -7.73552 116.38745 30274 ft 409 kts 228°
2026-05-04 12:38 -7.75433 116.36602 29933 ft 408 kts 228°
2026-05-04 12:39 -7.77308 116.34464 29527 ft 406 kts 228°
2026-05-04 12:39 -7.79170 116.32341 29139 ft 403 kts 228°
2026-05-04 12:39 -7.81022 116.30228 28754 ft 401 kts 229°
2026-05-04 12:39 -7.82516 116.27876 28368 ft 398 kts 248°
2026-05-04 12:40 -7.83128 116.25180 28001 ft 395 kts 266°
2026-05-04 12:40 -7.83285 116.22411 27631 ft 395 kts 267°
2026-05-04 12:40 -7.83415 116.19653 27262 ft 393 kts 267°
2026-05-04 12:40 -7.83534 116.16903 26903 ft 391 kts 267°
2026-05-04 12:41 -7.83649 116.14171 26544 ft 389 kts 267°
2026-05-04 12:41 -7.83769 116.11445 26192 ft 388 kts 267°
2026-05-04 12:41 -7.83895 116.08738 25845 ft 386 kts 267°
2026-05-04 12:41 -7.84023 116.06040 25500 ft 384 kts 267°
2026-05-04 12:42 -7.84152 116.03356 25163 ft 383 kts 267°
2026-05-04 12:42 -7.84277 116.00715 24820 ft 381 kts 267°
2026-05-04 12:42 -7.84406 115.98018 24495 ft 379 kts 267°
2026-05-04 12:42 -7.84530 115.95406 24173 ft 377 kts 267°
2026-05-04 12:43 -7.84652 115.92772 23851 ft 376 kts 267°
2026-05-04 12:43 -7.84775 115.90146 23529 ft 374 kts 267°
2026-05-04 12:43 -7.84898 115.87527 23147 ft 373 kts 267°
2026-05-04 12:43 -7.85021 115.84930 22943 ft 369 kts 267°
2026-05-04 12:44 -7.85143 115.82341 22946 ft 371 kts 267°
2026-05-04 12:44 -7.85262 115.79742 22943 ft 371 kts 267°
2026-05-04 12:44 -7.85379 115.77148 22947 ft 371 kts 267°
2026-05-04 12:44 -7.85499 115.74549 22947 ft 371 kts 267°
2026-05-04 12:45 -7.85618 115.71953 22948 ft 371 kts 267°
2026-05-04 12:45 -7.85734 115.69348 22948 ft 371 kts 267°
2026-05-04 12:45 -7.85848 115.66750 22948 ft 371 kts 267°
2026-05-04 12:45 -7.85964 115.64152 22947 ft 371 kts 267°
2026-05-04 12:46 -7.86084 115.61549 22953 ft 371 kts 267°
2026-05-04 12:46 -7.86206 115.58950 22951 ft 371 kts 267°
2026-05-04 12:46 -7.86328 115.56348 22945 ft 371 kts 267°
2026-05-04 12:46 -7.86450 115.53751 22948 ft 371 kts 267°
2026-05-04 12:47 -7.86574 115.51151 22949 ft 371 kts 267°
2026-05-04 12:47 -7.86698 115.48550 22951 ft 371 kts 267°
2026-05-04 12:47 -7.86819 115.45950 22947 ft 371 kts 267°
2026-05-04 12:47 -7.86939 115.43346 22950 ft 371 kts 267°
2026-05-04 12:48 -7.87059 115.40746 22948 ft 371 kts 267°
2026-05-04 12:48 -7.87179 115.38143 22949 ft 371 kts 267°
2026-05-04 12:48 -7.87299 115.35541 22948 ft 372 kts 267°
2026-05-04 12:48 -7.87417 115.32936 22947 ft 372 kts 267°
2026-05-04 12:49 -7.87538 115.30335 22949 ft 372 kts 267°
2026-05-04 12:49 -7.87660 115.27731 22949 ft 372 kts 267°
2026-05-04 12:49 -7.87778 115.25162 22949 ft 371 kts 267°
2026-05-04 12:49 -7.87896 115.22562 22947 ft 371 kts 267°
2026-05-04 12:50 -7.88013 115.19959 22948 ft 371 kts 267°
2026-05-04 12:50 -7.88209 115.17367 22944 ft 371 kts 258°
2026-05-04 12:50 -7.89044 115.14921 22948 ft 369 kts 240°
2026-05-04 12:50 -7.90449 115.12756 22950 ft 369 kts 234°
2026-05-04 12:51 -7.91913 115.10624 22887 ft 371 kts 234°
2026-05-04 12:51 -7.93388 115.08480 22354 ft 372 kts 234°
2026-05-04 12:51 -7.94859 115.06338 21853 ft 372 kts 234°
2026-05-04 12:51 -7.96328 115.04194 21382 ft 371 kts 234°
2026-05-04 12:52 -7.97793 115.02053 20891 ft 371 kts 234°
2026-05-04 12:52 -7.99258 114.99911 20423 ft 370 kts 234°
2026-05-04 12:52 -8.00719 114.97775 19956 ft 370 kts 234°
2026-05-04 12:52 -8.02176 114.95644 19500 ft 369 kts 234°
2026-05-04 12:53 -8.03634 114.93510 19055 ft 369 kts 234°
2026-05-04 12:53 -8.05087 114.91380 18603 ft 368 kts 234°
2026-05-04 12:53 -8.06537 114.89255 18160 ft 367 kts 234°
2026-05-04 12:53 -8.07986 114.87136 17652 ft 367 kts 234°
2026-05-04 12:54 -8.09432 114.85016 17148 ft 366 kts 234°
2026-05-04 12:54 -8.10873 114.82896 16656 ft 366 kts 234°
2026-05-04 12:54 -8.12308 114.80784 16173 ft 365 kts 234°
2026-05-04 12:54 -8.13735 114.78689 15935 ft 357 kts 234°
2026-05-04 12:55 -8.15119 114.76662 15807 ft 346 kts 234°
2026-05-04 12:55 -8.16465 114.74690 15690 ft 336 kts 234°
2026-05-04 12:55 -8.17756 114.72796 15543 ft 329 kts 234°
2026-05-04 12:55 -8.19043 114.70908 15292 ft 325 kts 233°
2026-05-04 12:56 -8.20321 114.69033 15020 ft 323 kts 233°
2026-05-04 12:56 -8.21594 114.67167 14942 ft 323 kts 233°
2026-05-04 12:56 -8.22870 114.65292 14951 ft 324 kts 233°
2026-05-04 12:56 -8.24249 114.63509 14955 ft 321 kts 220°
2026-05-04 12:57 -8.26128 114.62333 14758 ft 318 kts 198°
2026-05-04 12:57 -8.28302 114.62019 13868 ft 321 kts 171°
2026-05-04 12:57 -8.30444 114.62679 12820 ft 326 kts 154°
2026-05-04 12:57 -8.32485 114.63597 12416 ft 313 kts 155°
2026-05-04 12:58 -8.34446 114.64466 11975 ft 304 kts 155°
2026-05-04 12:58 -8.36374 114.65309 11409 ft 300 kts 155°
2026-05-04 12:58 -8.38287 114.66140 10825 ft 298 kts 155°
2026-05-04 12:58 -8.40184 114.66960 10221 ft 296 kts 154°
2026-05-04 12:59 -8.42056 114.67773 9888 ft 291 kts 154°
2026-05-04 12:59 -8.43917 114.68585 9487 ft 291 kts 154°
2026-05-04 12:59 -8.45767 114.69390 9083 ft 288 kts 154°
2026-05-04 12:59 -8.47603 114.70190 8786 ft 287 kts 154°
2026-05-04 13:00 -8.49424 114.70986 8511 ft 285 kts 154°
2026-05-04 13:00 -8.51237 114.71779 8233 ft 283 kts 154°
2026-05-04 13:00 -8.53037 114.72564 7969 ft 281 kts 154°
2026-05-04 13:00 -8.54810 114.73378 7697 ft 278 kts 148°
2026-05-04 13:01 -8.56362 114.74519 7429 ft 275 kts 137°
2026-05-04 13:01 -8.57809 114.75781 7154 ft 274 kts 138°
2026-05-04 13:01 -8.59248 114.77031 6891 ft 272 kts 137°
2026-05-04 13:01 -8.60682 114.78275 6630 ft 271 kts 138°
2026-05-04 13:02 -8.62110 114.79511 6361 ft 271 kts 138°
2026-05-04 13:02 -8.63537 114.80743 6084 ft 269 kts 138°
2026-05-04 13:02 -8.64953 114.81965 5815 ft 267 kts 138°
2026-05-04 13:02 -8.66363 114.83180 5552 ft 266 kts 138°
2026-05-04 13:03 -8.67766 114.84394 5301 ft 265 kts 138°
2026-05-04 13:03 -8.69144 114.85587 5048 ft 264 kts 138°
2026-05-04 13:03 -8.70531 114.86789 4787 ft 262 kts 138°
2026-05-04 13:03 -8.71908 114.87983 4513 ft 259 kts 138°
2026-05-04 13:04 -8.73253 114.89148 4269 ft 251 kts 137°
2026-05-04 13:04 -8.74505 114.90332 4028 ft 241 kts 127°
2026-05-04 13:04 -8.75281 114.91786 3799 ft 233 kts 107°
2026-05-04 13:04 -8.75494 114.93385 3571 ft 228 kts 90°
2026-05-04 13:05 -8.75496 114.94969 3348 ft 223 kts 91°
2026-05-04 13:05 -8.75503 114.96514 3126 ft 217 kts 92°
2026-05-04 13:05 -8.75508 114.97504 3062 ft 209 kts 92°
2026-05-04 13:05 -8.75519 114.99395 3037 ft 193 kts 91°
2026-05-04 13:06 -8.75492 115.00682 3043 ft 174 kts 89°
2026-05-04 13:06 -8.75462 115.01461 2990 ft 162 kts 90°
2026-05-04 13:06 -8.75414 115.02547 2665 ft 150 kts 90°
2026-05-04 13:06 -8.75369 115.03575 2315 ft 142 kts 90°
2026-05-04 13:07 -8.75328 115.04559 2094 ft 138 kts 90°
2026-05-04 13:07 -8.75289 115.05523 1980 ft 136 kts 90°
2026-05-04 13:07 -8.75251 115.06477 1868 ft 136 kts 89°
2026-05-04 13:07 -8.75213 115.07429 1746 ft 135 kts 90°
2026-05-04 13:08 -8.75177 115.08377 1596 ft 135 kts 90°
2026-05-04 13:08 -8.75140 115.09324 1396 ft 135 kts 88°
2026-05-04 13:08 -8.75104 115.10267 1202 ft 134 kts 88°
2026-05-04 13:08 -8.75067 115.11205 1079 ft 135 kts 89°
2026-05-04 13:09 -8.75014 115.12154 925 ft 135 kts 88°
2026-05-04 13:09 -8.74965 115.13098 614 ft 135 kts 90°
2026-05-04 13:09 -8.74933 115.14053 321 ft 141 kts 90°
2026-05-04 13:09 -8.74903 115.15019 143 ft 136 kts 90°
2026-05-04 13:10 -8.74869 115.15958 32 ft 127 kts 90°
2026-05-04 13:10 -8.74850 115.16599 28 ft 57 kts 89°
2026-05-04 13:10 -8.74783 115.16812 28 ft 7 kts 47°
2026-05-04 13:10 -8.74763 115.16842 29 ft 3 kts 47°
2026-05-04 13:11 -8.74751 115.16850 30 ft 4 kts 27°
2026-05-04 13:11 -8.74689 115.16834 31 ft 19 kts 298°
2026-05-04 13:11 -8.74682 115.16687 32 ft 26 kts 271°
2026-05-04 13:11 -8.74687 115.16539 32 ft 17 kts 267°
2026-05-04 13:12 -8.74691 115.16426 32 ft 15 kts 268°
2026-05-04 13:12 -8.74681 115.16352 32 ft 8 kts 340°
2026-05-04 13:12 -8.74631 115.16343 33 ft 7 kts 353°
2026-05-04 13:12 -8.74591 115.16342 33 ft 5 kts 358°
2026-05-04 13:13 -8.74573 115.16341 33 ft 0 kts 358°
2026-05-04 13:13 -8.74571 115.16341 33 ft 0 kts 356°